User: anonymous
Location: Unspecified
(0.0000°N, 0.0000°E)
Time: 08:39:29
(UTC+02:00)
Language:

Delta 168 - Orbit

View from above orbital plane
View from above orbital plane
View from above satellite
View from above satellite

Ground track
Ground track

The orbit data is extracted from the following two-line orbital elements,

1 14051U 83041B   14208.15854191  .00001376  00000-0  11711-3 0  5689
2 14051 025.3330 195.7313 1128832 129.5686 323.2735 13.01226785440299
Epoch (UTC): 27 July 2014 03:48:18
Eccentricity: 0.1128832
inclination: 25.3330°
perigee height: 395 km
apogee height: 2119 km
right ascension of ascending node: 195.7313°
argument of perigee: 129.5686°
revolutions per day: 13.01226785
mean anomaly at epoch: 323.2735°
orbit number at epoch: 44029

The dashed part of the orbit path shows where the satellite is in the earth's shadow,  

DLR